Wrangell, AK

3:37 AM AKDT on March 28, 2017 (GMT -0800)
Wrangell

Weather History for PAWG - September, 2013

Change the Weather History Date:

Tuesday, September 24, 2013

  Actual Average Record
Temperature  
Mean Temperature 50 °F -  
Max Temperature 53 °F 56 °F 65 °F (1976)
Min Temperature 46 °F 44 °F 30 °F (1972)
Degree Days  
Heating Degree Days 16    
Moisture  
Dew Point 42 °F    
Average Humidity 81    
Maximum Humidity 87    
Minimum Humidity 67    
Precipitation  
Precipitation 0.00 in - - ()
Sea Level Pressure  
Sea Level Pressure 29.87 in    
Wind  
Wind Speed 6 mph (SE)    
Max Wind Speed 8 mph    
Max Gust Speed -    
Visibility 10 miles    
Events      
Averages and records for this station are not official NWS values.
T = Trace of Precipitation, MM = Missing Value Source: NWS Daily Summary

Daily Weather History Graph

Daily Weather History Graph

Search for Another Location

Airport or City:

Trip Planner

Search our weather history database for the weather conditions in past years. The results will help you decide how hot, cold, wet, or windy it might be!

Date:

Astronomy

Sep. 24, 2013 Rise Set
Actual Time 6:39 AM AKDT 6:41 PM AKDT
Civil Twilight 6:01 AM AKDT 7:19 PM AKDT
Nautical Twilight 5:17 AM AKDT 8:03 PM AKDT
Astronomical Twilight 4:30 AM AKDT 8:50 PM AKDT
Moon 9:05 PM AKDT (9/24) 12:59 PM AKDT (9/24)
Length of Visible Light 13h 17m
Length of Day
12h 02m
Waning Gibbous, 72% of the Moon is Illuminated
Sep 24
Waning Gibbous
Sep 26
Last Quarter
Oct 4
New
Oct 11
First Quarter
Oct 18
Full

Hourly Weather History & Observations

Time (AKDT) Temp. Windchill Dew Point Humidity Pressure Visibility Wind Dir Wind Speed Gust Speed Precip Events Conditions
12:16 AM 46.4 °F 42.4 °F 41.0 °F 81% 29.73 in 10.0 mi ESE 8.1 mph - N/A   Overcast
12:36 AM 46.4 °F 43.5 °F 41.0 °F 81% 29.73 in 10.0 mi SSE 5.8 mph - N/A   Overcast
12:56 AM 46.4 °F 42.4 °F 41.0 °F 81% 29.74 in 10.0 mi SE 8.1 mph - N/A   Overcast
1:16 AM 46.4 °F 45.2 °F 41.0 °F 81% 29.74 in 10.0 mi South 3.5 mph - N/A   Overcast
1:36 AM 46.4 °F 44.3 °F 41.0 °F 81% 29.75 in 10.0 mi South 4.6 mph - N/A   Overcast
1:56 AM 46.4 °F 45.2 °F 41.0 °F 81% 29.75 in 10.0 mi SE 3.5 mph - N/A   Overcast
2:16 AM 46.4 °F 42.9 °F 42.8 °F 87% 29.76 in 10.0 mi SE 6.9 mph - N/A   Overcast
2:36 AM 46.4 °F 43.5 °F 42.8 °F 87% 29.76 in 10.0 mi ESE 5.8 mph - N/A   Overcast
2:56 AM 46.4 °F 43.5 °F 42.8 °F 87% 29.77 in 10.0 mi SE 5.8 mph - N/A   Overcast
3:16 AM 46.4 °F 45.2 °F 42.8 °F 87% 29.78 in 10.0 mi South 3.5 mph - N/A   Overcast
3:36 AM 46.4 °F 44.3 °F 42.8 °F 87% 29.78 in 10.0 mi ESE 4.6 mph - N/A   Overcast
3:56 AM 46.4 °F 42.4 °F 42.8 °F 87% 29.79 in 10.0 mi ESE 8.1 mph - N/A   Overcast
4:16 AM 46.4 °F 42.9 °F 41.0 °F 81% 29.80 in 10.0 mi SE 6.9 mph - N/A   Overcast
4:36 AM 46.4 °F 43.5 °F 42.8 °F 87% 29.80 in 10.0 mi SE 5.8 mph - N/A   Overcast
4:56 AM 46.4 °F 42.9 °F 42.8 °F 87% 29.80 in 10.0 mi ESE 6.9 mph - N/A   Overcast
5:16 AM 46.4 °F 42.9 °F 41.0 °F 81% 29.81 in 10.0 mi SSE 6.9 mph - N/A   Overcast
5:36 AM 46.4 °F 44.3 °F 42.8 °F 87% 29.82 in 10.0 mi SE 4.6 mph - N/A   Overcast
5:56 AM 46.4 °F 43.5 °F 42.8 °F 87% 29.82 in 10.0 mi ESE 5.8 mph - N/A   Mostly Cloudy
6:16 AM 46.4 °F 42.9 °F 42.8 °F 87% 29.83 in 10.0 mi ESE 6.9 mph - N/A   Mostly Cloudy
6:36 AM 46.4 °F 43.5 °F 41.0 °F 81% 29.84 in 10.0 mi ESE 5.8 mph - N/A   Mostly Cloudy
6:56 AM 46.4 °F 43.5 °F 41.0 °F 81% 29.85 in 10.0 mi East 5.8 mph - N/A   Mostly Cloudy
7:16 AM 46.4 °F 42.9 °F 41.0 °F 81% 29.85 in 10.0 mi ESE 6.9 mph - N/A   Mostly Cloudy
7:36 AM 46.4 °F 42.4 °F 41.0 °F 81% 29.86 in 10.0 mi SE 8.1 mph - N/A   Mostly Cloudy
7:56 AM 46.4 °F 43.5 °F 41.0 °F 81% 29.87 in 10.0 mi ESE 5.8 mph - N/A   Mostly Cloudy
8:16 AM 46.4 °F 42.4 °F 41.0 °F 81% 29.87 in 10.0 mi ESE 8.1 mph - N/A   Mostly Cloudy
8:36 AM 46.4 °F 43.5 °F 42.8 °F 87% 29.88 in 10.0 mi SE 5.8 mph - N/A   Mostly Cloudy
8:56 AM 46.4 °F 42.9 °F 42.8 °F 87% 29.89 in 10.0 mi East 6.9 mph - N/A   Mostly Cloudy
9:16 AM 46.4 °F 42.9 °F 42.8 °F 87% 29.89 in 10.0 mi East 6.9 mph - N/A   Mostly Cloudy
9:36 AM 48.2 °F - 42.8 °F 82% 29.90 in 10.0 mi ESE 5.8 mph - N/A   Mostly Cloudy
9:56 AM 48.2 °F - 42.8 °F 82% 29.90 in 10.0 mi ESE 4.6 mph - N/A   Mostly Cloudy
10:16 AM 48.2 °F - 42.8 °F 82% 29.91 in 10.0 mi East 4.6 mph - N/A   Mostly Cloudy
10:36 AM 48.2 °F - 42.8 °F 82% 29.92 in 10.0 mi ESE 3.5 mph - N/A   Mostly Cloudy
10:56 AM 48.2 °F - 42.8 °F 82% 29.92 in 10.0 mi ESE 4.6 mph - N/A   Mostly Cloudy
11:16 AM 48.2 °F - 42.8 °F 82% 29.93 in 10.0 mi Calm Calm - N/A   Mostly Cloudy
11:36 AM 48.2 °F - 42.8 °F 82% 29.93 in 10.0 mi Calm Calm - N/A   Mostly Cloudy
11:56 AM 48.2 °F - 42.8 °F 82% 29.94 in 10.0 mi Calm Calm - N/A   Mostly Cloudy
12:16 PM 48.2 °F - 42.8 °F 82% 29.94 in 10.0 mi Calm Calm - N/A   Mostly Cloudy
12:36 PM 48.2 °F - 42.8 °F 82% 29.94 in 10.0 mi Calm Calm - N/A   Mostly Cloudy
12:56 PM 51.8 °F - 42.8 °F 71% 29.95 in 10.0 mi Calm Calm - N/A   Mostly Cloudy
1:16 PM 51.8 °F - 42.8 °F 71% 29.96 in 10.0 mi WSW 3.5 mph - N/A   Mostly Cloudy
1:36 PM 53.6 °F - 42.8 °F 67% 29.96 in 10.0 mi West 5.8 mph - N/A   Mostly Cloudy
1:56 PM 51.8 °F - 44.6 °F 76% 29.97 in 10.0 mi NNW 6.9 mph - N/A   Mostly Cloudy
2:16 PM 51.8 °F - 42.8 °F 71% 29.97 in 10.0 mi NW 5.8 mph - N/A   Mostly Cloudy
2:36 PM 53.6 °F - 42.8 °F 67% 29.98 in 10.0 mi WNW 5.8 mph - N/A   Mostly Cloudy
5:55 PM 51.8 °F - 42.8 °F 71% 30.01 in 10.0 mi WNW 3.5 mph - N/A   Scattered Clouds
6:45 PM 51.8 °F - 42.8 °F 71% 30.03 in 10.0 mi WNW 3.5 mph - N/A   Scattered Clouds
7:45 PM 51.8 °F - 42.8 °F 71% 30.05 in 10.0 mi WNW 5.8 mph - N/A   Scattered Clouds